Regional Weather Roundup
Issued by NWS Glasgow, MT

Home | Current Version | Previous Version | Text Only | Print | Product List | Glossary On
Versions: 1 2 3 4 5 6 7 8 9 10 11 12 13 14 15 16 17 18 19 20 21 22 23 24 25 26 27 28 29 30 31 32 33 34 35 36 37 38 39 40 41 42 43 44 45 46 47 48 49 50
000
ASUS45 KGGW 262015
RWRGGW
HOURLY REGIONAL WEATHER ROUNDUP FOR NORTHEAST MONTANA
NATIONAL WEATHER SERVICE GLASGOW MONTANA
200 PM MDT FRI MAY 26 2017

NOTE: "FAIR" INDICATES FEW OR NO CLOUDS BELOW 12,000 FEET WITH NO
SIGNIFICANT WEATHER AND/OR OBSTRUCTIONS TO VISISBILITY.

NORTHEAST MONTANA


CITY           SKY/WX    TMP DP  RH WIND       PRES   REMARKS
GLASGOW        CLOUDY    67  31  26 W14G26    29.81F
PLENTYWOOD       N/A     65  29  25 NW22G31     N/A
WOLF POINT     CLOUDY    67  32  27 NW16      29.80S
JORDAN           N/A     65  33  30 NW14G22   29.86F
WINNETT          N/A     63  30  28 W12G20      N/A
SIDNEY         MOSUNNY   67  33  28 NW18G31   29.79F
GLENDIVE       CLOUDY    63  32  31 NW16G26   29.84S
MALTA            N/A     65  39  38 W10G24      N/A
OPHEIM           N/A     59  30  33 NW14      29.65F

FORT PECK REPORTS


CITY           SKY/WX    TMP DP  RH WIND       PRES   REMARKS
FORT PECK        N/A     64  37  36 W16G26      N/A
THE PINES        N/A     66  30  26 W3G12       N/A

SOUTHEAST MONTANA


CITY           SKY/WX    TMP DP  RH WIND       PRES   REMARKS
BILLINGS       CLOUDY    61  30  31 CALM      29.91F
MILES CITY     PTSUNNY   66  29  24 NW16G24   29.85F
BAKER          CLOUDY    60  35  39 NW13G24   29.86F
LIVINGSTON     CLOUDY    60  34  37 E12G20    29.91F

CENTRAL MONTANA


CITY           SKY/WX    TMP DP  RH WIND       PRES   REMARKS
HAVRE          CLOUDY    65  36  34 MISG      29.86F
LEWISTOWN      MOSUNNY   57  33  40 W8        29.94S
GREAT FALLS    PTSUNNY   59  36  42 E3        29.92F
CUT BANK       SUNNY     63  31  30 N12       29.90F
HELENA         SUNNY     65  31  28 N6        29.92F
BUTTE          CLOUDY    57  24  28 VRB5      29.93F
BOZEMAN        MOSUNNY   59  33  37 CALM      29.90F

WESTERN MONTANA


CITY           SKY/WX    TMP DP  RH WIND       PRES   REMARKS
MISSOULA       LGT RAIN  60  41  49 W12G23    29.92R
KALISPELL      NOT AVBL

NORTH DAKOTA


CITY           SKY/WX    TMP DP  RH WIND       PRES   REMARKS
WILLISTON      PTSUNNY   70  35  27 W22G28    29.77S
DICKINSON      CLOUDY    65  33  30 NW23G33   29.80R
MINOT          PTSUNNY   65  41  41 W21G29    29.72S
BISMARCK       CLOUDY    67  41  38 W18       29.78R

SOUTHERN SASKATCHEWAN


CITY           SKY/WX    TMP DP  RH WIND       PRES   REMARKS
REGINA         PTSUNNY   66  37  34 NW25G36   29.67S
MOOSE JAW      PTSUNNY   66  39  37 NW21      29.71S
ESTEVAN        PTSUNNY   61  37  41 NW22G31   29.70F
SWIFT CURRENT  LGT RAIN  50  41  71 W29G39    29.80R




USA.gov is the U.S. government's official web portal to all federal, state and local government web resources and services.